When you browse on this site, cookies collect data to enhance your experience and personalize the content and advertising you see.
Visit our Privacy Policy to learn more. By continuing to use the site, you agree to this use of cookies and data.
  • In United Kingdom
  • List of Countries
  • For 7 days
  • Water Temperature
  • Satellite Maps
  • Weather Map
  • Weather Widgets
  • user-avatar
    Login

    Hourly Weather Nesebyr

    Today, 21 July, Sunday

    Time Temperature Precipitation Wind Pressure Humidity
    00:00 +20°C° 0 mm 1 mps 762 mmHg 86%
    01:00 +20°C° 0 mm 1 mps 762 mmHg 86%
    02:00 +20°C° 0 mm 1 mps 762 mmHg 86%
    03:00 +20°C° 0 mm 1 mps 762 mmHg 86%
    04:00 +19°C° 0 mm 1 mps 762 mmHg 86%
    05:00 +19°C° 0 mm 1 mps 762 mmHg 85%
    06:00 +22°C° 0 mm 1 mps 762 mmHg 75%
    07:00 +24°C° 0 mm 1 mps 762 mmHg 65%
    08:00 +25°C° 0 mm 0 mps 762 mmHg 55%
    09:00 +28°C° 0 mm 1 mps 762 mmHg 48%
    10:00 +30°C° 0 mm 2 mps 762 mmHg 42%
    11:00 +31°C° 0 mm 3 mps 762 mmHg 35%
    12:00 +33°C° 0 mm 3 mps 762 mmHg 34%
    13:00 +33°C° 0 mm 4 mps 762 mmHg 34%
    14:00 +34°C° 0 mm 4 mps 761 mmHg 33%
    15:00 +33°C° 0 mm 4 mps 761 mmHg 34%
    16:00 +32°C° 0 mm 4 mps 761 mmHg 35%
    17:00 +32°C° 0 mm 4 mps 761 mmHg 36%
    18:00 +28°C° 0 mm 3 mps 761 mmHg 45%
    19:00 +26°C° 0 mm 3 mps 761 mmHg 53%
    20:00 +24°C° 0 mm 2 mps 761 mmHg 61%
    21:00 +23°C° 0 mm 1 mps 762 mmHg 63%
    22:00 +22°C° 0 mm 1 mps 762 mmHg 64%
    23:00 +19°C° 0 mm 0 mps 762 mmHg 66%

    Tomorrow, 22 July, Monday

    Time Temperature Precipitation Wind Pressure Humidity
    00:00 +21°C° 0 mm 1 mps 762 mmHg 64%
    01:00 +21°C° 0 mm 1 mps 762 mmHg 62%
    02:00 +21°C° 0 mm 1 mps 762 mmHg 60%
    03:00 +21°C° 0 mm 1 mps 761 mmHg 58%
    04:00 +20°C° 0 mm 1 mps 761 mmHg 57%
    05:00 +20°C° 0 mm 1 mps 761 mmHg 55%
    06:00 +23°C° 0 mm 1 mps 761 mmHg 49%
    07:00 +26°C° 0 mm 1 mps 761 mmHg 43%
    08:00 +28°C° 0 mm 1 mps 762 mmHg 37%
    09:00 +30°C° 0 mm 1 mps 762 mmHg 34%
    10:00 +32°C° 0 mm 2 mps 761 mmHg 30%
    11:00 +34°C° 0 mm 2 mps 761 mmHg 26%
    12:00 +35°C° 0 mm 3 mps 761 mmHg 26%
    13:00 +35°C° 0 mm 3 mps 761 mmHg 25%
    14:00 +36°C° 0 mm 4 mps 760 mmHg 25%
    15:00 +35°C° 0 mm 4 mps 760 mmHg 26%
    16:00 +34°C° 0 mm 4 mps 760 mmHg 28%
    17:00 +34°C° 0 mm 5 mps 760 mmHg 29%
    18:00 +30°C° 0 mm 4 mps 760 mmHg 37%
    19:00 +28°C° 0 mm 3 mps 760 mmHg 45%
    20:00 +25°C° 0 mm 2 mps 759 mmHg 53%
    21:00 +24°C° 0 mm 1 mps 760 mmHg 52%
    22:00 +24°C° 0 mm 1 mps 760 mmHg 52%
    23:00 +21°C° 0 mm 0 mps 760 mmHg 52%

    Day after tomorrow, 23 July, Tuesday

    Time Temperature Precipitation Wind Pressure Humidity
    00:00 +23°C° 0 mm 1 mps 760 mmHg 50%
    01:00 +23°C° 0 mm 1 mps 759 mmHg 49%
    02:00 +23°C° 0 mm 1 mps 759 mmHg 48%
    03:00 +23°C° 0 mm 1 mps 759 mmHg 48%
    04:00 +23°C° 0 mm 1 mps 759 mmHg 49%
    05:00 +23°C° 0 mm 1 mps 759 mmHg 49%
    06:00 +24°C° 0 mm 2 mps 759 mmHg 52%
    07:00 +25°C° 0 mm 2 mps 759 mmHg 55%
    08:00 +26°C° 0 mm 3 mps 759 mmHg 58%
    09:00 +27°C° 0 mm 3 mps 759 mmHg 56%
    10:00 +29°C° 0 mm 3 mps 759 mmHg 55%
    11:00 +30°C° 0 mm 4 mps 759 mmHg 53%
    12:00 +30°C° 0.3 mm 4 mps 759 mmHg 54%
    13:00 +29°C° 0.3 mm 4 mps 758 mmHg 56%
    14:00 +29°C° 0.3 mm 4 mps 758 mmHg 57%
    15:00 +28°C° 1.6 mm 5 mps 758 mmHg 64%
    16:00 +27°C° 1.6 mm 6 mps 759 mmHg 71%
    17:00 +26°C° 1.6 mm 7 mps 759 mmHg 78%
    18:00 +24°C° 0.2 mm 6 mps 759 mmHg 80%
    19:00 +23°C° 0.2 mm 5 mps 759 mmHg 82%
    20:00 +22°C° 0.2 mm 3 mps 759 mmHg 85%
    21:00 +21°C° 0 mm 3 mps 760 mmHg 86%
    22:00 +21°C° 0 mm 3 mps 760 mmHg 88%
    23:00 +20°C° 0 mm 3 mps 760 mmHg 89%

    24 July, Wednesday

    Time Temperature Precipitation Wind Pressure Humidity
    00:00 +19°C° 0 mm 2 mps 760 mmHg 89%
    01:00 +19°C° 0 mm 2 mps 760 mmHg 90%
    02:00 +18°C° 0 mm 2 mps 759 mmHg 90%
    03:00 +18°C° 0 mm 2 mps 759 mmHg 89%
    04:00 +17°C° 0 mm 2 mps 759 mmHg 87%
    05:00 +17°C° 0 mm 2 mps 759 mmHg 86%
    06:00 +19°C° 0 mm 2 mps 759 mmHg 78%
    07:00 +21°C° 0 mm 3 mps 760 mmHg 70%
    08:00 +23°C° 0 mm 4 mps 760 mmHg 61%
    09:00 +26°C° 0 mm 4 mps 760 mmHg 54%
    10:00 +27°C° 0 mm 4 mps 760 mmHg 47%
    11:00 +29°C° 0 mm 4 mps 760 mmHg 40%
    12:00 +29°C° 0 mm 4 mps 760 mmHg 40%
    13:00 +30°C° 0 mm 4 mps 759 mmHg 39%
    14:00 +30°C° 0 mm 4 mps 759 mmHg 39%
    15:00 +30°C° 0 mm 3 mps 759 mmHg 40%
    16:00 +29°C° 0 mm 3 mps 759 mmHg 42%
    17:00 +29°C° 0 mm 2 mps 759 mmHg 44%
    18:00 +27°C° 0 mm 2 mps 759 mmHg 50%
    19:00 +25°C° 0 mm 1 mps 759 mmHg 56%
    20:00 +24°C° 0 mm 1 mps 759 mmHg 62%
    21:00 +23°C° 0 mm 1 mps 759 mmHg 63%
    22:00 +23°C° 0 mm 1 mps 759 mmHg 64%
    23:00 +22°C° 0 mm 1 mps 759 mmHg 64%

    25 July, Thursday

    Time Temperature Precipitation Wind Pressure Humidity
    00:00 +22°C° 0 mm 1 mps 759 mmHg 65%
    01:00 +21°C° 0 mm 2 mps 759 mmHg 67%
    02:00 +20°C° 0 mm 2 mps 759 mmHg 68%
    03:00 +20°C° 0 mm 2 mps 759 mmHg 71%
    04:00 +20°C° 0 mm 2 mps 759 mmHg 73%
    05:00 +19°C° 0 mm 2 mps 759 mmHg 76%
    06:00 +21°C° 0 mm 3 mps 759 mmHg 71%
    07:00 +23°C° 0 mm 4 mps 760 mmHg 65%
    08:00 +25°C° 0 mm 5 mps 760 mmHg 60%
    09:00 +27°C° 0 mm 5 mps 760 mmHg 53%
    10:00 +29°C° 0 mm 5 mps 760 mmHg 46%
    11:00 +32°C° 0 mm 5 mps 760 mmHg 39%
    12:00 +32°C° 0 mm 5 mps 760 mmHg 37%
    13:00 +33°C° 0 mm 5 mps 759 mmHg 35%
    14:00 +34°C° 0 mm 4 mps 759 mmHg 33%
    15:00 +33°C° 0 mm 4 mps 759 mmHg 35%
    16:00 +33°C° 0 mm 4 mps 759 mmHg 37%
    17:00 +32°C° 0 mm 4 mps 759 mmHg 38%
    18:00 +29°C° 0 mm 3 mps 759 mmHg 48%
    19:00 +26°C° 0 mm 2 mps 759 mmHg 58%
    20:00 +24°C° 0 mm 1 mps 759 mmHg 67%
    21:00 +23°C° 0 mm 1 mps 759 mmHg 68%
    22:00 +23°C° 0 mm 1 mps 759 mmHg 69%
    23:00 +22°C° 0 mm 1 mps 759 mmHg 70%

    26 July, Friday

    Time Temperature Precipitation Wind Pressure Humidity
    00:00 +22°C° 0 mm 1 mps 759 mmHg 69%
    01:00 +22°C° 0 mm 1 mps 759 mmHg 68%
    02:00 +21°C° 0 mm 1 mps 759 mmHg 68%
    03:00 +21°C° 0 mm 1 mps 759 mmHg 67%
    04:00 +21°C° 0 mm 1 mps 759 mmHg 67%
    05:00 +20°C° 0 mm 1 mps 759 mmHg 67%
    06:00 +23°C° 0 mm 2 mps 759 mmHg 61%
    07:00 +25°C° 0 mm 2 mps 759 mmHg 54%
    08:00 +27°C° 0 mm 3 mps 759 mmHg 48%
    09:00 +28°C° 0 mm 3 mps 759 mmHg 43%
    10:00 +30°C° 0 mm 4 mps 759 mmHg 38%
    11:00 +32°C° 0 mm 4 mps 759 mmHg 34%
    12:00 +33°C° 0 mm 4 mps 759 mmHg 32%
    13:00 +34°C° 0 mm 4 mps 758 mmHg 31%
    14:00 +34°C° 0 mm 4 mps 758 mmHg 30%
    15:00 +34°C° 0 mm 4 mps 758 mmHg 30%
    16:00 +33°C° 0 mm 4 mps 757 mmHg 30%
    17:00 +33°C° 0 mm 4 mps 757 mmHg 30%
    18:00 +29°C° 0 mm 3 mps 757 mmHg 40%
    19:00 +26°C° 0 mm 3 mps 758 mmHg 50%
    20:00 +24°C° 0 mm 2 mps 758 mmHg 60%
    21:00 +23°C° 0 mm 2 mps 758 mmHg 63%
    22:00 +22°C° 0 mm 1 mps 758 mmHg 66%
    23:00 +19°C° 0 mm 0 mps 758 mmHg 69%
    Show more